Location: Newark
(35.4036°N, 80.4356°W)
Time: 01:06:05
(UTC+00:00)

ISS - Pass Details

Date: 01 August 2019
Orbit: 410 x 421 km, 51.6° (Epoch: 24 August)

Event Time Altitude Azimuth Distance (km) Brightness Sun altitude
Rises 02:04:22 0° 326° (NW) 2,370 1.5 -17.9°
Reaches altitude 10° 02:07:13 10° 352° (N) 1,501 -0.3 -18.4°
Maximum altitude 02:09:09 14° 27° (NNE) 1,263 -1.2 -18.7°
Enters shadow 02:10:13 13° 48° (NE) 1,339 -1.3 -18.9°
